User: anonymous   Login
Location: Unspecified
(0.0000°N, 0.0000°E)
Time: 05:43:52
(UTC+00:00)
Language:

TBA - TO BE ASSIGNED - Orbit

View from above orbital plane
View from above orbital plane
View from above satellite
View from above satellite

Ground track
Ground track

The orbit is defined by the following mean orbital elements,

1 67680U          26145.59617441 +.00000000 +00000-0 +38142-3 0 00006
2 67680  96.6168 212.0685 0021025 197.8067 162.2438 15.24820635    09
Epoch (UTC): 25 May 2026 14:18:29
Eccentricity: 0.0021025
inclination: 96.6168°
perigee height: 477 km
apogee height: 506 km
right ascension of ascending node: 212.0685°
argument of perigee: 197.8067°
revolutions per day: 15.24820635
mean anomaly at epoch: 162.2438°

The dashed part of the orbit path shows where the satellite is in the earth's shadow,  

DLR